User: anonymous   Login
Location: Unspecified
(0.0000°N, 0.0000°E)
Time: 19:31:16
(UTC+00:00)
Language:

QIANFAN-11 - Orbit

View from above orbital plane
View from above orbital plane
View from above satellite
View from above satellite

Ground track
Ground track

The orbit is defined by the following mean orbital elements,

1 60389U          26145.55380652 +.00000000 +00000-0 +33081-4 0 00000
2 60389  88.9655 282.1709 0016276  86.9858 273.3156 13.51006045    06
Epoch (UTC): 25 May 2026 13:17:28
Eccentricity: 0.0016276
inclination: 88.9655°
perigee height: 1056 km
apogee height: 1081 km
right ascension of ascending node: 282.1709°
argument of perigee: 86.9858°
revolutions per day: 13.51006045
mean anomaly at epoch: 273.3156°

The dashed part of the orbit path shows where the satellite is in the earth's shadow,  

DLR